TimeCST,TemperatureF,Dew PointF,Humidity,Sea Level PressureIn,VisibilityMPH,Wind Direction,Wind SpeedMPH,Gust SpeedMPH,PrecipitationIn,Events,Conditions,WindDirDegrees,DateUTC
12:52 AM,21.9,15.1,75,29.99,10.0,NW,13.8,-,N/A,,Overcast,320,2014-01-19 06:52:00
1:35 AM,21.2,15.8,80,29.98,10.0,WNW,15.0,20.7,N/A,,Overcast,300,2014-01-19 07:35:00
1:52 AM,21.0,15.1,78,30.01,10.0,WNW,13.8,-,N/A,,Overcast,300,2014-01-19 07:52:00
2:52 AM,19.9,14.0,78,30.03,10.0,WNW,12.7,-,N/A,,Overcast,290,2014-01-19 08:52:00
3:33 AM,19.4,12.2,74,30.00,10.0,West,13.8,-,N/A,,Scattered Clouds,270,2014-01-19 09:33:00
3:52 AM,19.0,12.9,77,30.02,10.0,West,10.4,-,N/A,,Clear,260,2014-01-19 09:52:00
4:52 AM,18.0,12.9,81,30.00,10.0,WSW,9.2,-,N/A,,Clear,250,2014-01-19 10:52:00
5:52 AM,19.9,14.0,78,29.99,10.0,SW,9.2,-,N/A,,Clear,230,2014-01-19 11:52:00
6:52 AM,19.9,14.0,78,29.98,10.0,SSW,6.9,-,N/A,,Clear,210,2014-01-19 12:52:00
7:52 AM,21.0,15.1,78,29.99,10.0,SW,10.4,-,N/A,,Clear,220,2014-01-19 13:52:00
8:52 AM,24.1,16.0,71,29.98,10.0,SW,16.1,20.7,N/A,,Clear,230,2014-01-19 14:52:00
9:52 AM,27.0,18.0,69,29.97,10.0,SW,12.7,19.6,N/A,,Clear,230,2014-01-19 15:52:00
10:52 AM,30.9,21.0,67,29.95,10.0,SW,16.1,21.9,N/A,,Clear,230,2014-01-19 16:52:00
11:52 AM,34.0,24.1,67,29.90,10.0,SW,17.3,24.2,N/A,,Clear,230,2014-01-19 17:52:00
12:52 PM,37.0,26.1,65,29.83,10.0,SW,13.8,28.8,N/A,,Clear,220,2014-01-19 18:52:00
1:52 PM,41.0,28.0,60,29.79,10.0,SW,16.1,24.2,N/A,,Clear,220,2014-01-19 19:52:00
2:52 PM,43.0,28.0,56,29.74,10.0,SSW,17.3,26.5,N/A,,Clear,210,2014-01-19 20:52:00
3:52 PM,44.1,27.0,51,29.73,10.0,SSW,15.0,27.6,N/A,,Clear,210,2014-01-19 21:52:00
4:52 PM,43.0,27.0,53,29.73,10.0,SW,10.4,18.4,N/A,,Clear,220,2014-01-19 22:52:00
5:52 PM,42.1,27.0,55,29.73,10.0,SSW,11.5,19.6,N/A,,Clear,210,2014-01-19 23:52:00
6:52 PM,43.0,26.1,51,29.71,10.0,SSW,15.0,23.0,N/A,,Clear,210,2014-01-20 00:52:00
7:52 PM,44.1,25.0,47,29.71,10.0,SW,15.0,-,N/A,,Clear,220,2014-01-20 01:52:00
8:52 PM,43.0,25.0,49,29.71,10.0,SW,13.8,-,N/A,,Clear,230,2014-01-20 02:52:00
9:52 PM,45.0,26.1,48,29.70,10.0,SW,13.8,-,N/A,,Clear,230,2014-01-20 03:52:00
10:52 PM,39.9,28.0,63,29.71,10.0,WSW,12.7,-,N/A,,Clear,250,2014-01-20 04:52:00
11:52 PM,39.0,28.0,65,29.72,10.0,West,11.5,-,N/A,,Clear,260,2014-01-20 05:52:00